Regional Weather Roundup
Issued by NWS

Home | Current Version | Previous Version | Text Only | Print | Product List | Glossary On
Versions: 1 2 3 4 5 6 7 8 9 10 11 12 13 14 15 16 17 18 19 20 21 22 23 24 25 26 27 28 29 30 31 32 33 34 35 36 37 38 39 40 41 42 43 44 45
000
ASUS45 KBOU 250407
RWRCO

WEATHER ROUNDUP FOR COLORADO
NATIONAL WEATHER SERVICE DENVER/BOULDER CO
900 PM MST WED DEC 24 2014

NOTE: "FAIR" INDICATES FEW OR NO CLOUDS BELOW 12000 FEET WITH NO
SIGNIFICANT WEATHER AND/OR OBSTRUCTIONS TO VISIBILITY.

COZ001>005-013-030-031-250500-
...NORTHWEST COLORADO...

CITY           SKY/WX    TMP DP  RH WIND       PRES   REMARKS
CRAIG          CLOUDY    27  14  58 E7        29.67F WCI  19
HAYDEN         CLOUDY    21  10  63 E15       29.66F WCI   8
MEEKER         CLOUDY    31  16  54 CALM      29.68F
MOUNT WERNER   NOT AVBL
STEAMBOAT SPGS CLOUDY    15  10  81 E3        29.69F
WALDEN         PTCLDY    19  10  68 SE9       29.62F WCI   9
$$

COZ006>008-011-250500-
...WEST CENTRAL VALLEYS...

CITY           SKY/WX    TMP DP  RH WIND       PRES   REMARKS
GRAND JUNCTION CLOUDY    28  22  78 E5        29.76F WCI  23
MONTROSE       CLOUDY    28  19  69 SE6       29.80F WCI  22
EAGLE          CLEAR     16   9  73 CALM      29.78F
RIFLE          CLOUDY    25  17  72 NE3       29.78F
DELTA          CLOUDY    32  16  51 NE6       29.79F WCI  26
NUCLA          CLOUDY    30  19  64 E8        29.82F WCI  23
$$

COZ017>023-064>068-250500-
...SOUTHWEST COLORADO...

CITY           SKY/WX    TMP DP  RH WIND       PRES   REMARKS
DURANGO        CLOUDY    25  12  58 NE3       29.89F
CORTEZ         PTCLDY    29  20  69 NE6       29.85F WCI  23
PAGOSA SPRINGS CLOUDY    18   8  63 CALM      29.89F
TELLURIDE      CLOUDY    32  16  51 CALM      29.82F
WOLF CREEK PAS PTCLDY    14   3  62 MISG      29.83F
$$

COZ009-010-012-014-032>034-037-058>063-250500-
...CENTRAL COLORADO...

CITY           SKY/WX    TMP DP  RH WIND       PRES   REMARKS
ASPEN          CLOUDY    17  12  80 CALM      29.71F
BUENA VISTA    PTCLDY    25  10  53 NW7       29.69F WCI  18
COPPER MTN     PTCLDY    25   9  50 SW13G30   29.71F WCI  13
BERTHOUD PASS  FAIR      14  10  85 MISG      29.61F
COTTONWOOD PAS PTCLDY    32  12  43 NW15G26   29.69F WCI  22
GUNNISON       MOCLDY    -2 -27  29 CALM      29.87F
KREMMLING      MOCLDY     0  -4  85 CALM      29.73F
LEADVILLE      PTCLDY    21   7  54 NE10      29.68F WCI  10
MONARCH PASS   MOCLDY    16  10  79 W38G44    29.85F WCI  -6
SALIDA         NOT AVBL
SUNLIGHT       CLOUDY   N/A N/A N/A MISG      29.73F HAZE
WILKERSON PASS PTCLDY    19  10  68 SW17G25   29.67F WCI   4
$$

COZ069>075-250500-
...SAN LUIS VALLEY/SANGRE DE CRISTO MOUNTAINS...

CITY           SKY/WX    TMP DP  RH WIND       PRES   REMARKS
ALAMOSA        CLOUDY    16   5  62 N3        29.81F
LA VETA PASS   CLOUDY    16   5  62 MISG      29.72F
SAGUACHE       MOCLDY     7   1  78 NW7       29.83F WCI  -5
$$

COZ035-036-038>040-250500-
...NORTHERN COLORADO FRONT RANGE...

CITY           SKY/WX    TMP DP  RH WIND       PRES   REMARKS
DENVER INTL AP CLOUDY    39  19  44 SW9       29.50F
DMNS CITY PARK   N/A     40  16  37 S5        29.51F
AURORA         MOCLDY    40  17  39 S16       29.52F
FRONT RANGE AP NOT AVBL
ERIE MUNI ARPT   N/A     50   9  19 W17G24    29.48F
BOULDER MUN AP MOCLDY    46  16  29 SW13      29.50F
CENTENNIAL     MOCLDY    42  17  36 SW17      29.52F
BROOMFIELD     MOCLDY    48  12  23 W13G18    29.51F
FORT COLLINS   CLOUDY    28  16  59 NE6       29.50F WCI  22
LONGMONT       CLOUDY    48  15  26 SW12      29.50F
$$

COZ041-046-047-076>085-087-088-250500-
...PIKES PEAK/PALMER DIVIDE AND SOUTHERN FOOTHILLS...

CITY           SKY/WX    TMP DP  RH WIND       PRES   REMARKS
COLO. SPRINGS  CLOUDY    29  14  53 N5        29.59F WCI  24
A. F. ACADEMY  MOCLDY    38   9  30 N6        29.59F
ELLICOTT       NOT AVBL
FALCON         CLOUDY    39  13  33 W13       29.59F
FORT CARSON    MOCLDY    29  15  58 NW6       29.58F WCI  22
LIMON          CLOUDY    30  18  60 CALM      29.57F
MONUMENT HILL  MOCLDY    37  16  41 W20       29.57F
TRINIDAD       CLOUDY    37  18  46 NE5       29.62F
$$

COZ042>045-048>051-090-091-250500-
...NORTHEAST COLORADO...

CITY           SKY/WX    TMP DP  RH WIND       PRES   REMARKS
GREELEY ARPT   CLOUDY    25  10  54 CALM      29.49F
AKRON          CLOUDY    38  20  48 SW13      29.51F
BURLINGTON     CLOUDY    33  20  58 SW9       29.57F WCI  25
WRAY           MOCLDY    38  21  49 SW10      29.54F
STERLING       CLOUDY    27  23  86 CALM      29.50F
HOLYOKE        MOCLDY    34  27  75 CALM      29.53F
FORT MORGAN    CLOUDY    33  23  65 W6        29.51F WCI  28
$$

COZ086-089-092>099-250500-
...SOUTHEAST COLORADO...

CITY           SKY/WX    TMP DP  RH WIND       PRES   REMARKS
PUEBLO         CLOUDY    30  19  63 W8        29.59F WCI  22
LA JUNTA       CLOUDY    36  23  59 S9        29.59F
LAMAR          CLOUDY    28  17  63 N3        29.58F
SPRINGFIELD      N/A     31  18  58 SW10      29.63F WCI  22
$$


USA.gov is the U.S. government's official web portal to all federal, state and local government web resources and services.